| time (UTC) | temp F | wind direction | speed knots | gust knots | rain 1hr in | rain 24hr in | rain mn in | humidity % | barometer mb |
| 20260906051522 | 83 | 144 | 0.0 | 0.0 | 0.00 | 0.00 | 0.00 | 71 | 1012.6 |
| 20260906050003 | 83 | 144 | 0.0 | 1.7 | 0.00 | 0.00 | 0.00 | 70 | 1012.6 |
| 20260906044505 | 83 | 144 | 0.0 | 1.7 | 0.00 | 0.00 | 0.00 | 70 | 1012.5 |
| 20260906043016 | 83 | 144 | 0.0 | 1.7 | 0.00 | 0.00 | 0.00 | 71 | 1012.5 |
| 20260906041518 | 83 | 144 | 0.0 | 0.9 | 0.00 | 0.00 | 0.00 | 74 | 1012.5 |
| 20260906040026 | 83 | 144 | 0.0 | 0.0 | 0.00 | 0.00 | 0.00 | 73 | 1012.5 |
| 20260906034505 | 83 | 144 | 0.0 | 0.0 | 0.00 | 0.00 | 0.00 | 73 | 1012.4 |
| 20260906033009 | 84 | 144 | 0.0 | 0.0 | 0.00 | 0.00 | 0.00 | 72 | 1012.6 |
| 20260906031516 | 84 | 144 | 0.0 | 0.9 | 0.00 | 0.00 | 0.00 | 70 | 1012.8 |
| 20260906030018 | 85 | 144 | 0.0 | 1.7 | 0.00 | 0.00 | 0.00 | 70 | 1012.8 |
| 20260906024528 | 85 | 144 | 0.0 | 0.9 | 0.00 | 0.00 | 0.00 | 69 | 1012.6 |
| 20260906023005 | 85 | 144 | 0.0 | 0.0 | 0.00 | 0.00 | 0.00 | 69 | 1012.4 |
| 20260906021514 | 86 | 144 | 0.0 | 0.0 | 0.00 | 0.00 | 0.00 | 68 | 1012.2 |
| 20260906020017 | 87 | 144 | 0.0 | 1.7 | 0.00 | 0.00 | 0.00 | 67 | 1012.0 |
| 20260906014528 | 88 | 144 | 0.0 | 0.0 | 0.00 | 0.00 | 0.00 | 65 | 1011.7 |
| 20260906013032 | 88 | 144 | 0.0 | 1.7 | 0.00 | 0.00 | 0.00 | 63 | 1011.5 |
| 20260906011531 | 89 | 144 | 0.0 | 0.9 | 0.00 | 0.00 | 0.00 | 61 | 1011.3 |
| 20260906010014 | 90 | 144 | 0.0 | 0.0 | 0.00 | 0.00 | 0.00 | 60 | 1011.2 |
| 20260906004518 | 91 | 144 | 0.0 | 0.0 | 0.00 | 0.00 | 0.00 | 55 | 1011.3 |
| 20260906003028 | 92 | 144 | 0.0 | 0.0 | 0.00 | 0.00 | 0.00 | 53 | 1011.3 |
| 20260906001531 | 94 | 144 | 0.0 | 0.0 | 0.00 | 0.00 | 0.00 | 50 | 1011.3 |
| 20260906000032 | 95 | 144 | 0.0 | 0.0 | 0.00 | 0.00 | 0.00 | 49 | 1011.4 |
| 20260905234517 | 96 | 144 | 0.0 | 1.7 | 0.00 | 0.00 | 0.00 | 48 | 1011.4 |
| 20260905233023 | 97 | 144 | 0.0 | 1.7 | 0.00 | 0.00 | 0.00 | 47 | 1011.4 |
| 20260905231530 | 97 | 144 | 0.0 | 3.5 | 0.00 | 0.00 | 0.00 | 47 | 1011.4 |
| 20260905230009 | 98 | 161 | 0.0 | 1.7 | 0.00 | 0.00 | 0.00 | 47 | 1011.5 |
| 20260905224515 | 99 | 161 | 0.9 | 4.3 | 0.00 | 0.00 | 0.00 | 43 | 1011.5 |
| 20260905223030 | 99 | 162 | 0.9 | 6.1 | 0.00 | 0.00 | 0.00 | 41 | 1011.5 |
| 20260905221502 | 99 | 146 | 0.0 | 4.3 | 0.00 | 0.00 | 0.00 | 40 | 1011.5 |
| 20260905220007 | 99 | 155 | 0.9 | 5.2 | 0.00 | 0.00 | 0.00 | 40 | 1011.5 |
| 20260905214512 | 99 | 193 | 1.7 | 4.3 | 0.00 | 0.00 | 0.00 | 43 | 1011.4 |
| 20260905213019 | 99 | 194 | 3.5 | 6.1 | 0.00 | 0.00 | 0.00 | 40 | 1011.5 |
| 20260905211523 | 100 | 148 | 1.7 | 6.1 | 0.00 | 0.00 | 0.00 | 44 | 1011.6 |
| 20260905210003 | 100 | 131 | 0.0 | 3.5 | 0.00 | 0.00 | 0.00 | 41 | 1011.7 |
| 20260905204508 | 100 | 136 | 2.6 | 6.1 | 0.00 | 0.00 | 0.00 | 40 | 1012.0 |
| 20260905203012 | 99 | 130 | 2.6 | 7.0 | 0.00 | 0.00 | 0.00 | 42 | 1012.3 |
| 20260905201521 | 99 | 112 | 0.0 | 5.2 | 0.00 | 0.00 | 0.00 | 41 | 1012.4 |
| 20260905200029 | 100 | 179 | 2.6 | 5.2 | 0.00 | 0.00 | 0.00 | 42 | 1012.7 |
| 20260905194527 | 99 | 143 | 2.6 | 7.8 | 0.00 | 0.00 | 0.00 | 41 | 1012.9 |
| 20260905193008 | 99 | 55 | 1.7 | 7.8 | 0.00 | 0.00 | 0.00 | 42 | 1013.1 |
| 20260905191516 | 98 | 232 | 3.5 | 8.7 | 0.00 | 0.00 | 0.00 | 44 | 1013.4 |
| 20260905190039 | 98 | 176 | 4.3 | 9.6 | 0.00 | 0.00 | 0.00 | 44 | 1013.5 |
| 20260905184529 | 97 | 203 | 1.7 | 7.8 | 0.00 | 0.00 | 0.00 | 45 | 1013.6 |
| 20260905183028 | 99 | 127 | 2.6 | 7.0 | 0.00 | 0.00 | 0.00 | 46 | 1013.7 |
| 20260905181516 | 98 | 159 | 4.3 | 7.8 | 0.00 | 0.00 | 0.00 | 45 | 1013.7 |
| 20260905180020 | 98 | 14 | 1.7 | 8.7 | 0.00 | 0.00 | 0.00 | 39 | 1013.8 |
| 20260905174522 | 98 | 295 | 0.0 | 8.7 | 0.00 | 0.00 | 0.00 | 42 | 1014.0 |
| 20260905173029 | 97 | 271 | 2.6 | 5.2 | 0.00 | 0.00 | 0.00 | 43 | 1014.1 |
| 20260905171535 | 97 | 11 | 0.9 | 7.0 | 0.00 | 0.00 | 0.00 | 44 | 1014.2 |
| 20260905170012 | 96 | 121 | 3.5 | 7.8 | 0.00 | 0.00 | 0.00 | 45 | 1014.5 |
| 20260905164527 | 96 | 83 | 3.5 | 9.6 | 0.00 | 0.00 | 0.00 | 46 | 1014.7 |
| 20260905163027 | 96 | 130 | 6.1 | 10.4 | 0.00 | 0.00 | 0.00 | 47 | 1015.0 |
| 20260905161531 | 95 | 111 | 3.5 | 7.0 | 0.00 | 0.00 | 0.00 | 49 | 1015.0 |
| 20260905160032 | 95 | 104 | 2.6 | 8.7 | 0.00 | 0.00 | 0.00 | 49 | 1015.0 |
| 20260905154514 | 95 | 54 | 4.3 | 8.7 | 0.00 | 0.00 | 0.00 | 49 | 1015.1 |
| 20260905153029 | 94 | 55 | 1.7 | 7.8 | 0.00 | 0.00 | 0.00 | 52 | 1015.1 |
| 20260905151531 | 93 | 42 | 4.3 | 7.8 | 0.00 | 0.00 | 0.00 | 53 | 1015.1 |
| 20260905150032 | 93 | 26 | 3.5 | 7.0 | 0.00 | 0.00 | 0.00 | 54 | 1015.2 |
| 20260905144531 | 91 | 38 | 3.5 | 7.0 | 0.00 | 0.00 | 0.00 | 57 | 1015.2 |
| 20260905143021 | 90 | 65 | 4.3 | 7.8 | 0.00 | 0.00 | 0.00 | 59 | 1015.1 |
| 20260905141524 | 89 | 55 | 3.5 | 7.0 | 0.00 | 0.00 | 0.00 | 62 | 1015.2 |
| 20260905140004 | 87 | 27 | 3.5 | 5.2 | 0.00 | 0.00 | 0.00 | 65 | 1015.0 |
| 20260905134511 | 86 | 51 | 1.7 | 3.5 | 0.00 | 0.00 | 0.00 | 67 | 1015.0 |
| 20260905133022 | 84 | 71 | 2.6 | 4.3 | 0.00 | 0.00 | 0.00 | 69 | 1015.0 |
| 20260905131531 | 83 | 20 | 0.0 | 3.5 | 0.00 | 0.00 | 0.00 | 72 | 1015.0 |
| 20260905130036 | 81 | 20 | 0.0 | 2.6 | 0.00 | 0.00 | 0.00 | 74 | 1014.7 |
| 20260905124506 | 80 | 20 | 0.9 | 2.6 | 0.00 | 0.00 | 0.00 | 76 | 1014.6 |
| 20260905123011 | 79 | 242 | 0.0 | 1.7 | 0.00 | 0.00 | 0.00 | 79 | 1014.5 |
| 20260905121516 | 78 | 242 | 0.9 | 2.6 | 0.00 | 0.00 | 0.00 | 80 | 1014.3 |
| 20260905120024 | 77 | 242 | 0.0 | 0.0 | 0.00 | 0.00 | 0.00 | 81 | 1014.2 |
| 20260905114528 | 77 | 242 | 0.0 | 0.0 | 0.00 | 0.00 | 0.00 | 82 | 1014.1 |
| 20260905113012 | 77 | 242 | 0.0 | 1.7 | 0.00 | 0.00 | 0.00 | 83 | 1014.1 |
| 20260905111513 | 77 | 242 | 0.0 | 0.0 | 0.00 | 0.00 | 0.00 | 83 | 1014.0 |
| 20260905110018 | 77 | 242 | 0.0 | 0.0 | 0.00 | 0.00 | 0.00 | 83 | 1014.1 |
| 20260905104525 | 77 | 242 | 0.0 | 2.6 | 0.00 | 0.00 | 0.00 | 83 | 1014.0 |
| 20260905103028 | 77 | 242 | 0.9 | 2.6 | 0.00 | 0.00 | 0.00 | 83 | 1014.0 |
| 20260905101508 | 77 | 242 | 1.7 | 2.6 | 0.00 | 0.00 | 0.00 | 83 | 1014.1 |
| 20260905100021 | 78 | 16 | 0.0 | 3.5 | 0.00 | 0.00 | 0.00 | 82 | 1014.2 |
| 20260905094521 | 78 | 266 | 0.9 | 6.1 | 0.00 | 0.00 | 0.00 | 82 | 1014.0 |
| 20260905093027 | 78 | 15 | 0.9 | 2.6 | 0.00 | 0.00 | 0.00 | 83 | 1013.9 |
| 20260905091529 | 78 | 16 | 0.9 | 3.5 | 0.00 | 0.00 | 0.00 | 84 | 1013.8 |
| 20260905090013 | 78 | 161 | 0.0 | 0.0 | 0.00 | 0.00 | 0.00 | 84 | 1013.8 |
| 20260905084522 | 79 | 161 | 0.0 | 1.7 | 0.00 | 0.00 | 0.00 | 83 | 1013.8 |
| 20260905083025 | 78 | 161 | 0.0 | 3.5 | 0.00 | 0.00 | 0.00 | 83 | 1013.7 |
| 20260905081529 | 78 | 161 | 0.0 | 0.0 | 0.00 | 0.00 | 0.00 | 83 | 1013.8 |
| 20260905080031 | 78 | 161 | 0.0 | 0.0 | 0.00 | 0.00 | 0.00 | 83 | 1013.8 |
| 20260905074516 | 79 | 161 | 0.0 | 0.0 | 0.00 | 0.00 | 0.00 | 83 | 1013.9 |
| 20260905073024 | 79 | 161 | 0.0 | 0.9 | 0.00 | 0.00 | 0.00 | 82 | 1013.9 |
| 20260905071503 | 79 | 161 | 0.0 | 1.7 | 0.00 | 0.00 | 0.00 | 83 | 1013.9 |
| 20260905070008 | 79 | 161 | 0.0 | 0.0 | 0.00 | 0.00 | 0.00 | 82 | 1013.9 |
| 20260905064511 | 79 | 161 | 0.0 | 0.0 | 0.00 | 0.00 | 0.00 | 83 | 1013.8 |
| 20260905063003 | 80 | 161 | 0.0 | 0.0 | 0.00 | 0.00 | 0.00 | 81 | 1014.0 |
| 20260905061504 | 80 | 161 | 0.0 | 0.9 | 0.00 | 0.00 | 0.00 | 81 | 1014.0 |
| 20260905060005 | 80 | 161 | 0.0 | 0.0 | 0.00 | 0.00 | 0.00 | 80 | 1014.0 |
| 20260905054529 | 80 | 161 | 0.0 | 0.9 | 0.00 | 0.00 | 0.00 | 79 | 1013.9 |
| 20260905053014 | 81 | 161 | 0.0 | 1.7 | 0.00 | 0.00 | 0.00 | 79 | 1013.9 |